sat.trackr.live / text

‹ back to catalog

STARLINK-31732

NORAD 60099 · 2024-117J

PAYLOAD ACTIVE UNKNOWN

§ Identity

Operator
Country
US
Launch date
2024-06-23
Launch site
AFETR
Launch vehicle
Mass (kg)
RCS (m²)

Purposes: comms

External: N2YO · Heavens-Above · Gunter

§ Orbital elements

Epoch: 2026-09-21T02:43:55.744032Z

Period
93.85 min
Inclination
53.1585°
Eccentricity
0.0001358
Mean motion
15.34390702 rev/d
Perigee alt
461.8 km
Apogee alt
463.7 km
Semi-major
6,840.9 km
B*
5.8754e-5
RAAN
206.7842°
Arg perigee
86.3901°
Mean anomaly
273.7257°
Rev number
12,684

§ Raw data

STARLINK-317321 60099U 24117J   26264.11383963  .00001609  00000+0  58754-4 0  99912 60099  53.1585 206.7842 0001358  86.3901 273.7257 15.34390702126844

JSON: /api/v1/satellites/60099 · /tle

For live sub-satellite position, see the globe view (requires WebGL).

§ Visibility from observer

Set your observer location to see the next 7 days of passes ≥ 10°. The values pass through the URL so the page stays shareable.

No JS? Fill the form by hand. The geolocation button needs JavaScript.